[[{"header":{"parameterUnit":"m.s-1","parameterCategory":1,"la1":30.2991,"la2":30.254,"lo1":-89.0895,"lo2":-89.0444,"dy":0.0017,"dx":0.0017,"nx":28,"ny":28,"refTime":"2023-09-28T21:00:00:Z","depth":0,"parameterNumber":2,"parameterNumberName":"U-component_of_WINDS"},"data":[0,0,0,0,0,0,0,0,0,0,0,0,0,0,0,0,0,0,0,0,0,0,0,0,0,0,0,0,0,0,0,0,0,0,0,0,0,0,0,0,0,0,0,0,0,0,0,0,0,0,0,0,0,0,0,0,0,0,-2.1567,-2.1568,0,-2.1678,-2.168,-2.1681,-2.1645,-2.1642,-2.164,-2.1637,-2.1754,-2.1759,-2.1764,0,0,0,0,0,0,0,0,0,0,0,0,0,-2.1324,-2.1329,-2.1567,-2.1568,-2.1569,-2.1678,-2.168,-2.1681,-2.1645,-2.1642,-2.1639,-2.1636,-2.1752,-2.1758,-2.1765,0,0,0,0,0,0,0,0,0,0,0,0,0,-2.1432,-2.133,-2.1566,-2.1564,-2.1565,-2.1678,-2.168,-2.1682,-2.1646,-2.1642,-2.1638,-2.1635,-2.175,-2.1758,-2.1765,-2.1887,0,0,-2.179,-2.1793,0,0,0,0,0,0,0,0,-2.1426,-2.1441,-2.1563,-2.1565,-2.1566,-2.1644,-2.1637,-2.1751,-2.1647,-2.1615,-2.1637,-2.1633,-2.172,-2.173,-2.1759,-2.1893,-2.1898,-2.1791,-2.1795,-2.1799,-2.1801,0,0,0,0,0,0,0,-2.1418,-2.1436,-2.1611,-2.1565,-2.1567,-2.1559,-2.157,-2.1658,-2.1687,-2.1618,-2.1615,-2.1629,-2.172,-2.1752,-2.1762,-2.1899,-2.179,-2.1798,-2.1802,-2.1806,-2.2139,-2.2143,0,0,0,0,0,0,-2.141,-2.143,-2.1607,-2.1614,-2.1486,-2.1566,-2.1579,-2.1623,-2.1686,-2.1692,-2.1632,-2.1627,-2.174,-2.1752,-2.1766,-2.1913,-2.1799,-2.1806,-2.1811,-2.2135,-2.214,-2.2144,0,0,0,0,0,0,-2.1405,-2.1426,-2.1603,-2.1521,-2.1543,-2.1574,-2.1624,-2.1627,-2.1658,-2.1696,-2.1701,-2.1659,-2.1737,-2.1754,-2.1857,-2.1917,-2.181,-2.1817,-2.213,-2.2137,-2.2142,-2.2209,0,0,0,0,0,0,-2.1398,-2.1424,-2.1471,-2.1523,-2.1548,-2.1692,-2.1627,-2.1631,-2.1672,-2.1666,-2.1723,-2.1729,-2.1736,-2.1846,-2.1865,-2.1926,-2.1824,-2.2125,-2.2133,-2.214,-2.2201,-2.2216,-2.2229,0,0,0,0,0,-2.1389,-2.1485,-2.1473,-2.1495,-2.1606,-2.1696,-2.171,-2.1716,-2.1677,-2.1724,-2.1748,-2.1727,-2.1907,-2.1856,-2.1878,-2.1942,-2.2121,-2.2131,-2.214,-2.2195,-2.2213,-2.2229,0,0,0,0,0,0,-2.144,-2.1492,-2.1479,-2.1594,-2.1641,-2.1689,-2.1749,-2.1735,-2.1794,-2.1786,-2.1791,-2.1805,-2.1911,-2.1936,-2.1879,-2.2064,-2.2008,-2.2022,-2.2043,-2.2061,-2.2074,-2.2066,-2.183,0,0,0,0,0,-2.1464,-2.1532,-2.1574,-2.1672,-2.1696,-2.1718,-2.1758,-2.1758,-2.1807,-2.1826,-2.1858,-2.1907,-2.1974,-2.2019,-2.2083,-2.2204,-2.2217,-2.2259,-2.2273,-2.2284,-2.2297,-2.2364,-2.2384,-2.2174,-2.2174,-2.2174,0,0,-2.1515,-2.1552,-2.1595,-2.1683,-2.1719,-2.179,-2.1735,-2.1812,-2.1865,-2.1838,-2.1937,-2.1963,-2.2017,-2.213,-2.2182,-2.2155,-2.2357,-2.2296,-2.2305,-2.2311,-2.2376,-2.2395,-2.2413,-2.2181,-2.2179,-2.2178,0,0,-2.1645,-2.168,-2.1765,-2.1802,-2.1857,-2.1872,-2.1892,-2.1943,-2.1959,-2.2058,-2.204,-2.2103,-2.2219,-2.2259,-2.2294,-2.2439,-2.2423,-2.246,-2.2533,-2.2599,-2.2615,-2.263,-2.2683,-2.2702,-2.2472,-2.2472,-2.2472,0,-2.1702,-2.1808,-2.1811,-2.189,-2.193,-2.1907,-2.1995,-2.2031,-2.2104,-2.2133,-2.2101,-2.2247,-2.2282,-2.2405,-2.244,-2.2469,-2.2494,-2.2454,-2.2612,-2.2627,-2.2641,-2.2692,-2.2712,-2.2477,-2.2476,-2.2476,-2.2475,0,-2.1876,-2.195,-2.2012,-2.2083,-2.213,-2.2212,-2.2229,-2.2276,-2.2272,-2.229,-2.2392,-2.2433,-2.2506,-2.2535,-2.2532,-2.2658,-2.2639,-2.261,-2.2555,-2.2665,-2.2713,-2.2732,-2.2483,-2.2481,-2.248,-2.2479,0,0,-2.2042,-2.2113,-2.2136,-2.2168,-2.2228,-2.2285,-2.2367,-2.2437,-2.2478,-2.2529,-2.2599,-2.2697,-2.2671,-2.2711,-2.2713,-2.277,-2.2884,-2.2735,-2.2736,-2.2762,-2.3027,-2.3049,-2.3071,-2.2873,-2.2877,-2.288,-2.3023,0,-2.2177,-2.2321,-2.2326,-2.2458,-2.2526,-2.2506,-2.2578,-2.2622,-2.2641,-2.2703,-2.2724,-2.2794,-2.2753,-2.2778,-2.2833,-2.2859,-2.2938,-2.2848,-2.2939,-2.2942,-2.2927,-2.3096,-2.312,-2.3253,-2.3041,-2.3044,-2.3047,0,-2.2355,-2.2412,-2.255,-2.26,-2.2629,-2.2693,-2.2758,-2.2817,-2.2867,-2.2877,-2.2922,-2.2915,-2.3,-2.2941,-2.3059,-2.2998,-2.3035,-2.3053,-2.3058,-2.3068,-2.3002,-2.3112,-2.3295,-2.3316,-2.3076,-2.3073,-2.3071,0,-2.2464,-2.2574,-2.2672,-2.27,-2.276,-2.2806,-2.2833,-2.2879,-2.2922,-2.2979,-2.3006,-2.3073,-2.311,-2.3162,-2.3173,-2.3129,-2.3292,-2.3233,-2.3303,-2.3303,-2.3339,-2.3337,-2.3533,-2.3362,-2.3361,-2.3361,-2.336,0,-2.2616,-2.2701,-2.2721,-2.2781,-2.2877,-2.2882,-2.2977,-2.3001,-2.3042,-2.3107,-2.3094,-2.3155,-2.3166,-2.323,-2.324,-2.3337,-2.3353,-2.3364,-2.3366,-2.3367,-2.3365,-2.3392,-2.3384,-2.3366,-2.3365,-2.3364,-2.3363,0,-2.2753,-2.277,-2.2875,-2.2923,-2.2937,-2.3006,-2.3047,-2.3105,-2.3122,-2.3205,-2.3224,-2.3252,-2.3327,-2.3343,-2.3432,-2.3439,-2.3554,-2.3546,-2.3537,-2.3537,-2.3606,-2.36,-2.3827,-2.3857,-2.3665,-2.3667,-2.3668,0,-2.285,-2.2915,-2.297,-2.3012,-2.3042,-2.311,-2.3153,-2.316,-2.3206,-2.3268,-2.3319,-2.3392,-2.3451,-2.3572,-2.36,-2.3668,-2.3663,-2.3738,-2.3673,-2.3672,-2.3666,-2.3662,-2.3669,-2.375,-2.3753,-2.3754,-2.3756,0,-2.302,-2.3025,-2.3086,-2.3152,-2.3203,-2.3255,-2.3304,-2.334,-2.3354,-2.3406,-2.3482,-2.3528,-2.3618,-2.3692,-2.376,-2.3789,-2.3776,-2.3775,-2.3796,-2.3797,-2.3789,-2.3796,-2.3572,-2.3771,-2.3769,-2.3768,-2.3767,-2.3767,-2.3141,-2.3198,-2.3246,-2.3316,-2.3353,-2.34,-2.3457,-2.3481,-2.3544,-2.3618,-2.3619,-2.3702,-2.3751,-2.3842,-2.3875,-2.3941,-2.3918,-2.3946,-2.3954,-2.3961,-2.3968,-2.3778,-2.3953,-2.3953,-2.3952,-2.3952,-2.3952,0,-2.3311,-2.334,-2.3404,-2.3474,-2.3529,-2.351,-2.3563,-2.3611,-2.3684,-2.3731,-2.3789,-2.3877,-2.3948,-2.3982,-2.4053,-2.4099,-2.4095,-2.4117,-2.4115,-2.4122,-2.3984,-2.396,-2.412,-2.412,-2.412,-2.412,-2.412,-2.412,-2.3406,-2.3502,-2.3513,-2.3628,-2.3657,-2.3738,-2.3771,-2.3814,-2.3851,-2.395,-2.4009,-2.403,-2.4072,-2.4145,-2.421,-2.4218,-2.4246,-2.4272,-2.4277,-2.4148,-2.4131,-2.4115,-2.4093,-2.4277,-2.4278,-2.4409,-2.4411,-2.4412]},{"header":{"parameterUnit":"m.s-1","parameterCategory":1,"la1":30.2991,"la2":30.254,"lo1":-89.0895,"lo2":-89.0444,"dy":0.0017,"dx":0.0017,"nx":28,"ny":28,"refTime":"2023-09-28T21:00:00:Z","depth":0,"parameterNumber":3,"parameterNumberName":"V-component_of_WINDS"},"data":[0,0,0,0,0,0,0,0,0,0,0,0,0,0,0,0,0,0,0,0,0,0,0,0,0,0,0,0,0,0,0,0,0,0,0,0,0,0,0,0,0,0,0,0,0,0,0,0,0,0,0,0,0,0,0,0,0,0,-2.3897,-2.3898,0,-2.3905,-2.3906,-2.3906,-2.3875,-2.3874,-2.3874,-2.3873,-2.388,-2.3881,-2.3882,0,0,0,0,0,0,0,0,0,0,0,0,0,-2.3854,-2.3855,-2.3897,-2.3898,-2.3898,-2.3905,-2.3906,-2.3906,-2.3876,-2.3874,-2.3873,-2.3872,-2.3879,-2.388,-2.3882,0,0,0,0,0,0,0,0,0,0,0,0,0,-2.3869,-2.3856,-2.3897,-2.3884,-2.3882,-2.3905,-2.3906,-2.3906,-2.3876,-2.3874,-2.3873,-2.3872,-2.3879,-2.388,-2.3882,-2.3918,0,0,-2.3887,-2.3887,0,0,0,0,0,0,0,0,-2.3868,-2.387,-2.3886,-2.3885,-2.3883,-2.3888,-2.3893,-2.391,-2.3876,-2.3878,-2.3873,-2.3871,-2.3883,-2.3885,-2.3889,-2.3918,-2.3919,-2.3887,-2.3888,-2.3888,-2.3889,0,0,0,0,0,0,0,-2.3867,-2.387,-2.3901,-2.3886,-2.3884,-2.3876,-2.3877,-2.3896,-2.3888,-2.3878,-2.3876,-2.3877,-2.3883,-2.3888,-2.3889,-2.3919,-2.3887,-2.3888,-2.3889,-2.389,-2.3977,-2.3979,0,0,0,0,0,0,-2.3868,-2.3869,-2.39,-2.3901,-2.3872,-2.3878,-2.3879,-2.3888,-2.3888,-2.3887,-2.3878,-2.3876,-2.3886,-2.3887,-2.3889,-2.3931,-2.3888,-2.389,-2.3891,-2.3976,-2.3978,-2.3979,0,0,0,0,0,0,-2.3867,-2.3871,-2.39,-2.3884,-2.3888,-2.388,-2.3891,-2.3889,-2.3894,-2.3888,-2.3887,-2.3885,-2.3885,-2.3887,-2.3911,-2.393,-2.389,-2.3892,-2.3974,-2.3977,-2.3979,-2.4015,0,0,0,0,0,0,-2.3866,-2.3871,-2.3885,-2.3885,-2.3888,-2.3922,-2.3892,-2.389,-2.3897,-2.3893,-2.3894,-2.3893,-2.3884,-2.3909,-2.3912,-2.3932,-2.3893,-2.3973,-2.3975,-2.3978,-2.4012,-2.4018,-2.4023,0,0,0,0,0,-2.3865,-2.3895,-2.3886,-2.389,-2.3906,-2.3924,-2.3926,-2.3915,-2.3898,-2.3912,-2.3908,-2.3893,-2.3928,-2.3912,-2.3915,-2.3935,-2.3971,-2.3975,-2.3978,-2.4009,-2.4017,-2.4023,0,0,0,0,0,0,-2.3897,-2.3895,-2.3885,-2.3916,-2.392,-2.3919,-2.3936,-2.3923,-2.3932,-2.3928,-2.3914,-2.3915,-2.3941,-2.3941,-2.3923,-2.397,-2.3947,-2.3951,-2.3969,-2.3976,-2.3982,-2.3981,-2.3894,0,0,0,0,0,-2.3908,-2.3923,-2.392,-2.3948,-2.3951,-2.3943,-2.395,-2.3941,-2.3945,-2.3947,-2.3945,-2.3949,-2.396,-2.3968,-2.3979,-2.4012,-2.4011,-2.4027,-2.4033,-2.4038,-2.4041,-2.4058,-2.4065,-2.399,-2.399,-2.399,0,0,-2.3931,-2.3931,-2.3942,-2.3954,-2.3957,-2.3972,-2.3945,-2.3962,-2.3973,-2.3949,-2.3972,-2.3971,-2.3974,-2.4002,-2.4015,-2.4003,-2.4062,-2.4042,-2.4046,-2.4046,-2.4062,-2.4069,-2.4075,-2.3992,-2.3992,-2.3991,0,0,-2.3979,-2.3982,-2.4005,-2.4008,-2.4011,-2.4006,-2.4012,-2.4012,-2.401,-2.4033,-2.4015,-2.4027,-2.4048,-2.4051,-2.4055,-2.4104,-2.409,-2.4108,-2.4137,-2.4154,-2.416,-2.4165,-2.4181,-2.4188,-2.4112,-2.4112,-2.4112,0,-2.4007,-2.403,-2.4018,-2.4036,-2.4042,-2.4022,-2.4044,-2.4048,-2.4055,-2.4059,-2.4046,-2.4071,-2.4072,-2.41,-2.4112,-2.4116,-2.4122,-2.4108,-2.416,-2.4165,-2.4169,-2.4185,-2.4192,-2.4114,-2.4114,-2.4114,-2.4113,0,-2.4062,-2.4078,-2.4096,-2.4104,-2.4112,-2.4132,-2.4123,-2.4132,-2.4123,-2.4119,-2.4142,-2.4142,-2.4152,-2.4158,-2.4149,-2.4185,-2.4177,-2.4162,-2.4138,-2.4179,-2.4193,-2.4199,-2.4117,-2.4116,-2.4116,-2.4115,0,0,-2.4132,-2.4132,-2.4139,-2.4142,-2.4144,-2.4156,-2.4175,-2.4185,-2.4193,-2.4199,-2.4214,-2.4232,-2.4218,-2.4222,-2.4214,-2.4228,-2.4266,-2.4211,-2.4211,-2.422,-2.4304,-2.4315,-2.4323,-2.4257,-2.4258,-2.4259,-2.4304,0,-2.4179,-2.4212,-2.4202,-2.4235,-2.4249,-2.423,-2.4246,-2.4249,-2.4246,-2.4257,-2.4253,-2.4266,-2.4246,-2.4249,-2.4262,-2.4258,-2.4282,-2.4255,-2.427,-2.4271,-2.4269,-2.433,-2.4342,-2.4385,-2.431,-2.4311,-2.4311,0,-2.4238,-2.4246,-2.4281,-2.428,-2.4286,-2.4301,-2.4309,-2.432,-2.4322,-2.4319,-2.4324,-2.4312,-2.433,-2.4307,-2.4331,-2.4313,-2.4318,-2.4317,-2.4319,-2.4319,-2.4293,-2.4331,-2.4398,-2.4404,-2.432,-2.432,-2.4319,0,-2.4284,-2.4303,-2.4326,-2.4329,-2.433,-2.4341,-2.4341,-2.4343,-2.4349,-2.4356,-2.436,-2.4369,-2.4373,-2.438,-2.4371,-2.4355,-2.4396,-2.4372,-2.4393,-2.4394,-2.4402,-2.4402,-2.447,-2.4407,-2.4407,-2.4407,-2.4407,0,-2.4337,-2.4359,-2.4347,-2.4361,-2.4384,-2.4372,-2.4396,-2.4394,-2.4396,-2.4408,-2.4392,-2.4405,-2.4392,-2.4403,-2.4396,-2.4416,-2.4419,-2.4416,-2.4414,-2.4417,-2.4417,-2.442,-2.4416,-2.4409,-2.4408,-2.4408,-2.4408,0,-2.4392,-2.4385,-2.4409,-2.4407,-2.4407,-2.4424,-2.4423,-2.4435,-2.4431,-2.4447,-2.445,-2.4443,-2.4455,-2.4446,-2.4459,-2.4453,-2.4481,-2.4475,-2.448,-2.4478,-2.4499,-2.4497,-2.4571,-2.4579,-2.4512,-2.4512,-2.4513,0,-2.4426,-2.4442,-2.4442,-2.445,-2.4452,-2.4464,-2.4471,-2.4459,-2.4467,-2.4471,-2.4483,-2.4494,-2.4501,-2.4522,-2.4517,-2.4526,-2.452,-2.4545,-2.4521,-2.4523,-2.4519,-2.4518,-2.4519,-2.4549,-2.455,-2.4551,-2.4551,0,-2.4487,-2.4482,-2.4492,-2.4501,-2.4509,-2.4516,-2.4521,-2.4528,-2.4516,-2.4525,-2.4537,-2.4544,-2.4556,-2.4567,-2.4574,-2.4574,-2.4561,-2.4559,-2.4564,-2.4567,-2.457,-2.4568,-2.4492,-2.4557,-2.4557,-2.4556,-2.4556,-2.4556,-2.4532,-2.4545,-2.4547,-2.4558,-2.4561,-2.4566,-2.4577,-2.4574,-2.4584,-2.4594,-2.4586,-2.4601,-2.4603,-2.4611,-2.4613,-2.4623,-2.4613,-2.4621,-2.4623,-2.4624,-2.4627,-2.4568,-2.4625,-2.4625,-2.4624,-2.4624,-2.4624,0,-2.4591,-2.4591,-2.4602,-2.4609,-2.4618,-2.4605,-2.461,-2.4618,-2.4631,-2.4634,-2.4642,-2.4656,-2.4666,-2.4663,-2.4672,-2.4681,-2.4675,-2.4683,-2.4682,-2.4682,-2.4636,-2.4631,-2.4688,-2.4688,-2.4688,-2.4688,-2.4688,-2.4688,-2.4623,-2.4644,-2.464,-2.4662,-2.4662,-2.4676,-2.468,-2.4684,-2.4686,-2.4702,-2.4711,-2.4709,-2.4709,-2.4717,-2.4726,-2.4724,-2.4728,-2.4739,-2.4735,-2.4692,-2.4686,-2.468,-2.4674,-2.474,-2.474,-2.478,-2.4781,-2.4781]}]]